User: anonymous   Login
Location: Goodsell Observatory
(44.4617°N, 93.1522°W)
Time: 15:41:50
(UTC-05:00)
Language:

Hubble Space Telescope - Orbit

View from above orbital plane
View from above orbital plane
View from above satellite
View from above satellite

Ground track
Ground track

The orbit data is extracted from the following two-line orbital elements,

1 20580U 90037B   16121.53483834  .00001033  00000-0  53636-4 0  9997
2 20580  28.4695 213.3947 0003011  58.6549  50.9997 15.08326348227901
Epoch (UTC): 30 April 2016 12:50:10
Eccentricity: 0.0003011
inclination: 28.4695°
perigee height: 539 km
apogee height: 543 km
right ascension of ascending node: 213.3947°
argument of perigee: 58.6549°
revolutions per day: 15.08326348
mean anomaly at epoch: 50.9997°
orbit number at epoch: 22790

The dashed part of the orbit path shows where the satellite is in the earth's shadow,  

DLR